When you browse on this site, cookies collect data to enhance your experience and personalize the content and advertising you see.
Visit our Privacy Policy to learn more. By continuing to use the site, you agree to this use of cookies and data.
  • In Belgien
  • Länderverzeichnis
  • Für 7 Tage
  • Wassertemperatur
  • Satellitenkarten
  • Wetterkarte
  • Widgets
  • user-avatar
    Anmelden

    Stündliche Wetter Kanje

    Heute, 19 Juli, Freitag

    Zeit Temperatur Niederschläge Wind Luftdruck Luftfeuchtigkeit
    00:00 +10°C° 0 mm 1 m/S 652 mmHg 36%
    01:00 +9°C° 0 mm 1 m/S 652 mmHg 40%
    02:00 +8°C° 0 mm 1 m/S 652 mmHg 45%
    03:00 +8°C° 0 mm 1 m/S 651 mmHg 45%
    04:00 +8°C° 0 mm 1 m/S 651 mmHg 45%
    05:00 +8°C° 0 mm 1 m/S 651 mmHg 45%
    06:00 +9°C° 0 mm 1 m/S 651 mmHg 39%
    07:00 +10°C° 0 mm 1 m/S 652 mmHg 33%
    08:00 +13°C° 0 mm 1 m/S 654 mmHg 26%
    09:00 +17°C° 0 mm 2 m/S 654 mmHg 21%
    10:00 +20°C° 0 mm 3 m/S 655 mmHg 16%
    11:00 +23°C° 0 mm 4 m/S 656 mmHg 11%
    12:00 +25°C° 0 mm 4 m/S 655 mmHg 10%
    13:00 +26°C° 0 mm 4 m/S 655 mmHg 9%
    14:00 +26°C° 0 mm 5 m/S 654 mmHg 8%
    15:00 +25°C° 0 mm 5 m/S 654 mmHg 8%
    16:00 +25°C° 0 mm 4 m/S 653 mmHg 9%
    17:00 +23°C° 0 mm 4 m/S 653 mmHg 9%
    18:00 +20°C° 0 mm 4 m/S 652 mmHg 12%
    19:00 +17°C° 0 mm 4 m/S 652 mmHg 15%
    20:00 +13°C° 0 mm 4 m/S 652 mmHg 17%
    21:00 +12°C° 0 mm 3 m/S 652 mmHg 18%
    22:00 +11°C° 0 mm 3 m/S 652 mmHg 19%
    23:00 +9°C° 0 mm 3 m/S 652 mmHg 20%

    Morgen, 20 Juli, Samstag

    Zeit Temperatur Niederschläge Wind Luftdruck Luftfeuchtigkeit
    00:00 +9°C° 0 mm 3 m/S 651 mmHg 22%
    01:00 +8°C° 0 mm 3 m/S 651 mmHg 24%
    02:00 +7°C° 0 mm 3 m/S 651 mmHg 26%
    03:00 +7°C° 0 mm 3 m/S 650 mmHg 34%
    04:00 +5°C° 0 mm 3 m/S 650 mmHg 41%
    05:00 +4°C° 0 mm 3 m/S 650 mmHg 48%
    06:00 +5°C° 0 mm 3 m/S 651 mmHg 51%
    07:00 +7°C° 0 mm 3 m/S 652 mmHg 54%
    08:00 +7°C° 0 mm 3 m/S 652 mmHg 57%
    09:00 +11°C° 0 mm 4 m/S 653 mmHg 47%
    10:00 +14°C° 0 mm 5 m/S 654 mmHg 37%
    11:00 +17°C° 0 mm 5 m/S 655 mmHg 28%
    12:00 +19°C° 0 mm 5 m/S 655 mmHg 24%
    13:00 +20°C° 0 mm 5 m/S 654 mmHg 20%
    14:00 +22°C° 0 mm 5 m/S 654 mmHg 17%
    15:00 +21°C° 0 mm 5 m/S 654 mmHg 17%
    16:00 +20°C° 0 mm 4 m/S 653 mmHg 18%
    17:00 +20°C° 0 mm 4 m/S 653 mmHg 18%
    18:00 +17°C° 0 mm 3 m/S 653 mmHg 24%
    19:00 +13°C° 0 mm 2 m/S 652 mmHg 29%
    20:00 +9°C° 0 mm 2 m/S 652 mmHg 35%
    21:00 +9°C° 0 mm 1 m/S 652 mmHg 38%
    22:00 +8°C° 0 mm 1 m/S 652 mmHg 41%
    23:00 +7°C° 0 mm 1 m/S 653 mmHg 44%

    übermorgen, 21 Juli, Sonntag

    Zeit Temperatur Niederschläge Wind Luftdruck Luftfeuchtigkeit
    00:00 +7°C° 0 mm 1 m/S 653 mmHg 46%
    01:00 +6°C° 0 mm 1 m/S 652 mmHg 48%
    02:00 +6°C° 0 mm 1 m/S 652 mmHg 50%
    03:00 +5°C° 0 mm 1 m/S 652 mmHg 52%
    04:00 +5°C° 0 mm 1 m/S 652 mmHg 54%
    05:00 +5°C° 0 mm 1 m/S 652 mmHg 56%
    06:00 +6°C° 0 mm 1 m/S 653 mmHg 50%
    07:00 +7°C° 0 mm 1 m/S 654 mmHg 44%
    08:00 +8°C° 0 mm 2 m/S 655 mmHg 38%
    09:00 +10°C° 0 mm 3 m/S 655 mmHg 33%
    10:00 +13°C° 0 mm 4 m/S 656 mmHg 28%
    11:00 +16°C° 0 mm 5 m/S 657 mmHg 24%
    12:00 +17°C° 0 mm 5 m/S 656 mmHg 24%
    13:00 +19°C° 0 mm 5 m/S 656 mmHg 25%
    14:00 +20°C° 0 mm 5 m/S 655 mmHg 25%
    15:00 +19°C° 0 mm 5 m/S 655 mmHg 31%
    16:00 +17°C° 0 mm 5 m/S 655 mmHg 37%
    17:00 +16°C° 0 mm 5 m/S 655 mmHg 43%
    18:00 +14°C° 0 mm 5 m/S 654 mmHg 53%
    19:00 +11°C° 0 mm 4 m/S 654 mmHg 62%
    20:00 +8°C° 0 mm 4 m/S 654 mmHg 71%
    21:00 +7°C° 0 mm 4 m/S 654 mmHg 74%
    22:00 +7°C° 0 mm 4 m/S 654 mmHg 76%
    23:00 +6°C° 0 mm 4 m/S 655 mmHg 78%

    22 Juli, Montag

    Zeit Temperatur Niederschläge Wind Luftdruck Luftfeuchtigkeit
    00:00 +5°C° 0 mm 4 m/S 654 mmHg 81%
    01:00 +5°C° 0 mm 5 m/S 654 mmHg 84%
    02:00 +3°C° 0 mm 5 m/S 654 mmHg 87%
    03:00 +3°C° 0 mm 5 m/S 654 mmHg 89%
    04:00 +3°C° 0 mm 4 m/S 654 mmHg 92%
    05:00 +3°C° 0 mm 4 m/S 653 mmHg 94%
    06:00 +2°C° 0 mm 5 m/S 654 mmHg 94%
    07:00 +2°C° 0 mm 5 m/S 654 mmHg 94%
    08:00 +2°C° 0 mm 5 m/S 654 mmHg 94%
    09:00 +6°C° 0 mm 5 m/S 655 mmHg 79%
    10:00 +8°C° 0 mm 5 m/S 655 mmHg 65%
    11:00 +11°C° 0 mm 6 m/S 655 mmHg 50%
    12:00 +15°C° 0 mm 5 m/S 655 mmHg 41%
    13:00 +17°C° 0 mm 5 m/S 655 mmHg 32%
    14:00 +21°C° 0 mm 4 m/S 654 mmHg 23%
    15:00 +20°C° 0 mm 4 m/S 654 mmHg 22%
    16:00 +20°C° 0 mm 3 m/S 653 mmHg 21%
    17:00 +20°C° 0 mm 3 m/S 653 mmHg 21%
    18:00 +17°C° 0 mm 3 m/S 652 mmHg 28%
    19:00 +14°C° 0 mm 2 m/S 652 mmHg 35%
    20:00 +10°C° 0 mm 2 m/S 651 mmHg 42%
    21:00 +9°C° 0 mm 2 m/S 651 mmHg 45%
    22:00 +8°C° 0 mm 2 m/S 651 mmHg 47%
    23:00 +8°C° 0 mm 2 m/S 651 mmHg 49%

    23 Juli, Dienstag

    Zeit Temperatur Niederschläge Wind Luftdruck Luftfeuchtigkeit
    00:00 +7°C° 0 mm 2 m/S 651 mmHg 52%
    01:00 +7°C° 0 mm 2 m/S 650 mmHg 54%
    02:00 +5°C° 0 mm 3 m/S 650 mmHg 56%
    03:00 +5°C° 0 mm 3 m/S 650 mmHg 59%
    04:00 +5°C° 0 mm 3 m/S 649 mmHg 61%
    05:00 +4°C° 0 mm 3 m/S 649 mmHg 64%
    06:00 +5°C° 0 mm 3 m/S 650 mmHg 62%
    07:00 +7°C° 0 mm 3 m/S 650 mmHg 59%
    08:00 +7°C° 0 mm 3 m/S 651 mmHg 57%
    09:00 +11°C° 0 mm 3 m/S 652 mmHg 46%
    10:00 +17°C° 0 mm 4 m/S 653 mmHg 35%
    11:00 +21°C° 0 mm 5 m/S 654 mmHg 24%
    12:00 +22°C° 0 mm 5 m/S 653 mmHg 20%
    13:00 +24°C° 0 mm 6 m/S 653 mmHg 16%
    14:00 +27°C° 0 mm 6 m/S 652 mmHg 12%
    15:00 +26°C° 0 mm 6 m/S 652 mmHg 13%
    16:00 +26°C° 0 mm 5 m/S 651 mmHg 13%
    17:00 +25°C° 0 mm 4 m/S 651 mmHg 13%
    18:00 +22°C° 0 mm 4 m/S 650 mmHg 16%
    19:00 +19°C° 0 mm 4 m/S 649 mmHg 20%
    20:00 +16°C° 0 mm 3 m/S 649 mmHg 23%
    21:00 +14°C° 0 mm 4 m/S 649 mmHg 24%
    22:00 +14°C° 0 mm 4 m/S 649 mmHg 25%
    23:00 +14°C° 0 mm 4 m/S 649 mmHg 25%

    24 Juli, Mittwoch

    Zeit Temperatur Niederschläge Wind Luftdruck Luftfeuchtigkeit
    00:00 +13°C° 0 mm 5 m/S 649 mmHg 26%
    01:00 +13°C° 0 mm 5 m/S 649 mmHg 27%
    02:00 +13°C° 0 mm 6 m/S 650 mmHg 28%
    03:00 +10°C° 0 mm 6 m/S 650 mmHg 33%
    04:00 +8°C° 0 mm 7 m/S 650 mmHg 38%
    05:00 +6°C° 0 mm 8 m/S 651 mmHg 42%
    06:00 +5°C° 0 mm 8 m/S 651 mmHg 52%
    07:00 +3°C° 0 mm 9 m/S 652 mmHg 63%
    08:00 +2°C° 0 mm 9 m/S 653 mmHg 73%
    09:00 +6°C° 0 mm 8 m/S 653 mmHg 60%
    10:00 +9°C° 0 mm 8 m/S 654 mmHg 47%
    11:00 +11°C° 0 mm 8 m/S 655 mmHg 33%
    12:00 +12°C° 0 mm 7 m/S 655 mmHg 27%
    13:00 +15°C° 0 mm 6 m/S 654 mmHg 20%
    14:00 +16°C° 0 mm 6 m/S 654 mmHg 14%
    15:00 +16°C° 0 mm 6 m/S 654 mmHg 14%
    16:00 +15°C° 0 mm 5 m/S 654 mmHg 14%
    17:00 +15°C° 0 mm 5 m/S 654 mmHg 14%
    18:00 +12°C° 0 mm 4 m/S 654 mmHg 18%
    19:00 +8°C° 0 mm 4 m/S 654 mmHg 22%
    20:00 +7°C° 0 mm 3 m/S 654 mmHg 25%
    21:00 +5°C° 0 mm 3 m/S 654 mmHg 28%
    22:00 +4°C° 0 mm 3 m/S 654 mmHg 30%
    23:00 +3°C° 0 mm 3 m/S 654 mmHg 32%
    Mehr zeigen